ETH431 OJAI-HAAB

Flight info

Callsign ETH431
Flight time N/A
Altitude 33000
Route QTR01 L513 MUNRA M449 WEJ T510 RBG B544 JDW G650 RASKA UG650 KONET DCT EKBOB UT114 MEKEL MEKEL2A
Aircraft B738/M-SDE2E3FGHIRWXY/LB1

Departure

Time 2026-05-08 13:17
Airport Queen Alia International Airport (OJAI)

Arrival

Time N/A
Airport Addis Ababa Bole International Airport (HAAB)
Time Latitude Longitude Altitude Speed Heading
2026-05-08 12:48 31.72439 35.98962 2374 ft 0 kts 171°
2026-05-08 13:04 31.72452 35.98960 2374 ft 4 kts 171°
2026-05-08 13:04 31.72479 35.98955 2375 ft 4 kts 171°
2026-05-08 13:04 31.72504 35.98949 2374 ft 4 kts 148°
2026-05-08 13:04 31.72521 35.98928 2372 ft 4 kts 107°
2026-05-08 13:05 31.72524 35.98904 2375 ft 1 kts 82°
2026-05-08 13:05 31.72523 35.98900 2374 ft 0 kts 82°
2026-05-08 13:08 31.72524 35.98905 2375 ft 3 kts 82°
2026-05-08 13:08 31.72528 35.98944 2377 ft 6 kts 86°
2026-05-08 13:09 31.72526 35.99010 2373 ft 9 kts 94°
2026-05-08 13:09 31.72526 35.99089 2373 ft 10 kts 85°
2026-05-08 13:09 31.72535 35.99165 2377 ft 9 kts 81°
2026-05-08 13:09 31.72546 35.99239 2373 ft 9 kts 79°
2026-05-08 13:10 31.72560 35.99321 2374 ft 11 kts 79°
2026-05-08 13:10 31.72573 35.99417 2374 ft 12 kts 82°
2026-05-08 13:10 31.72563 35.99505 2376 ft 12 kts 139°
2026-05-08 13:10 31.72486 35.99529 2363 ft 12 kts 170°
2026-05-08 13:11 31.72393 35.99547 2373 ft 15 kts 171°
2026-05-08 13:11 31.72275 35.99571 2377 ft 19 kts 169°
2026-05-08 13:11 31.72148 35.99596 2373 ft 18 kts 171°
2026-05-08 13:11 31.72024 35.99620 2372 ft 18 kts 171°
2026-05-08 13:12 31.71961 35.99717 2373 ft 17 kts 83°
2026-05-08 13:12 31.71981 35.99852 2373 ft 16 kts 80°
2026-05-08 13:12 31.71999 35.99982 2373 ft 16 kts 81°
2026-05-08 13:12 31.72017 36.00106 2374 ft 15 kts 81°
2026-05-08 13:13 31.72033 36.00226 2376 ft 15 kts 81°
2026-05-08 13:13 31.72050 36.00340 2374 ft 14 kts 80°
2026-05-08 13:13 31.72067 36.00455 2375 ft 14 kts 81°
2026-05-08 13:13 31.72083 36.00571 2375 ft 14 kts 79°
2026-05-08 13:14 31.72103 36.00699 2375 ft 17 kts 80°
2026-05-08 13:14 31.72122 36.00833 2376 ft 17 kts 81°
2026-05-08 13:14 31.72143 36.00966 2376 ft 16 kts 79°
2026-05-08 13:14 31.72162 36.01096 2377 ft 16 kts 82°
2026-05-08 13:15 31.72179 36.01228 2377 ft 18 kts 81°
2026-05-08 13:15 31.72201 36.01386 2378 ft 20 kts 79°
2026-05-08 13:15 31.72225 36.01544 2378 ft 19 kts 81°
2026-05-08 13:15 31.72248 36.01695 2381 ft 18 kts 80°
2026-05-08 13:16 31.72192 36.01798 2379 ft 17 kts 169°
2026-05-08 13:16 31.72077 36.01820 2380 ft 16 kts 171°
2026-05-08 13:16 31.71994 36.01822 2381 ft 12 kts 213°
2026-05-08 13:16 31.71973 36.01732 2384 ft 12 kts 262°
2026-05-08 13:17 31.71928 36.01424 2381 ft 71 kts 261°
2026-05-08 13:17 31.71809 36.00585 2373 ft 135 kts 260°
2026-05-08 13:17 31.71625 35.99293 2491 ft 179 kts 259°
2026-05-08 13:17 31.71422 35.97828 3286 ft 179 kts 260°
2026-05-08 13:18 31.71169 35.96355 3806 ft 201 kts 260°
2026-05-08 13:18 31.71101 35.94624 3963 ft 223 kts 280°
2026-05-08 13:18 31.71306 35.92708 4124 ft 252 kts 276°
2026-05-08 13:18 31.71717 35.90650 4566 ft 266 kts 301°
2026-05-08 13:19 31.72938 35.88988 5196 ft 274 kts 319°
2026-05-08 13:19 31.74438 35.87574 5861 ft 280 kts 322°
2026-05-08 13:19 31.76011 35.86159 6515 ft 288 kts 323°
2026-05-08 13:19 31.77500 35.84540 7082 ft 295 kts 302°
2026-05-08 13:20 31.78307 35.82358 7900 ft 291 kts 281°
2026-05-08 13:20 31.78614 35.80026 8719 ft 288 kts 268°
2026-05-08 13:20 31.78141 35.77776 9416 ft 285 kts 236°
2026-05-08 13:20 31.76778 35.76132 10110 ft 283 kts 210°
2026-05-08 13:21 31.74927 35.75264 10445 ft 299 kts 189°
2026-05-08 13:21 31.72782 35.75214 10613 ft 321 kts 172°
2026-05-08 13:21 31.70555 35.75884 10781 ft 342 kts 162°
2026-05-08 13:21 31.68299 35.76864 11090 ft 356 kts 160°
2026-05-08 13:22 31.65976 35.77961 11580 ft 364 kts 159°
2026-05-08 13:22 31.63598 35.79088 12095 ft 370 kts 159°
2026-05-08 13:22 31.61190 35.80207 12697 ft 373 kts 160°
2026-05-08 13:22 31.58748 35.81320 13223 ft 379 kts 161°
2026-05-08 13:23 31.56255 35.82438 13696 ft 386 kts 161°
2026-05-08 13:23 31.53721 35.83558 14192 ft 391 kts 161°
2026-05-08 13:23 31.51169 35.84683 14756 ft 393 kts 161°
2026-05-08 13:23 31.48599 35.85809 15296 ft 396 kts 161°
2026-05-08 13:24 31.46004 35.86944 15805 ft 399 kts 161°
2026-05-08 13:24 31.43384 35.88088 16325 ft 403 kts 161°
2026-05-08 13:24 31.40745 35.89239 16844 ft 406 kts 161°
2026-05-08 13:24 31.38118 35.90383 17344 ft 410 kts 161°
2026-05-08 13:25 31.35434 35.91552 17828 ft 414 kts 161°
2026-05-08 13:25 31.32724 35.92731 18315 ft 417 kts 161°
2026-05-08 13:25 31.29988 35.93922 18748 ft 421 kts 161°
2026-05-08 13:25 31.27229 35.95122 19143 ft 425 kts 161°
2026-05-08 13:26 31.24440 35.96334 19528 ft 429 kts 161°
2026-05-08 13:26 31.21630 35.97554 19932 ft 433 kts 161°
2026-05-08 13:26 31.18794 35.98784 20333 ft 437 kts 161°
2026-05-08 13:26 31.15934 36.00025 20725 ft 441 kts 161°
2026-05-08 13:27 31.13042 36.01279 21105 ft 445 kts 161°
2026-05-08 13:27 31.10119 36.02545 21459 ft 449 kts 161°
2026-05-08 13:27 31.07216 36.03801 21806 ft 453 kts 161°
2026-05-08 13:27 31.04242 36.05088 22189 ft 457 kts 161°
2026-05-08 13:28 31.01251 36.06382 22515 ft 460 kts 161°
2026-05-08 13:28 30.98237 36.07684 22862 ft 464 kts 161°
2026-05-08 13:28 30.95203 36.08994 23208 ft 467 kts 161°
2026-05-08 13:28 30.92142 36.10315 23545 ft 471 kts 161°
2026-05-08 13:29 30.89058 36.11646 23817 ft 474 kts 161°
2026-05-08 13:29 30.85953 36.12984 24087 ft 477 kts 161°
2026-05-08 13:29 30.82812 36.14283 24327 ft 480 kts 165°
2026-05-08 13:29 30.79558 36.15161 24587 ft 481 kts 172°
2026-05-08 13:30 30.76244 36.15800 24873 ft 483 kts 173°
2026-05-08 13:30 30.72904 36.16399 25139 ft 486 kts 173°
2026-05-08 13:30 30.69545 36.17003 25390 ft 489 kts 173°
2026-05-08 13:30 30.66208 36.17622 25631 ft 493 kts 173°
2026-05-08 13:31 30.62811 36.18271 25874 ft 496 kts 173°
2026-05-08 13:31 30.59396 36.18938 26076 ft 499 kts 172°
2026-05-08 13:31 30.55960 36.19617 26276 ft 503 kts 172°
2026-05-08 13:31 30.52499 36.20303 26530 ft 506 kts 172°
2026-05-08 13:32 30.49015 36.20994 26776 ft 508 kts 172°
2026-05-08 13:32 30.45530 36.21683 27016 ft 510 kts 172°
2026-05-08 13:32 30.42024 36.22374 27340 ft 510 kts 172°
2026-05-08 13:32 30.38582 36.23053 27914 ft 505 kts 172°
2026-05-08 13:33 30.35115 36.23735 28190 ft 507 kts 172°
2026-05-08 13:33 30.31619 36.24420 28343 ft 512 kts 172°
2026-05-08 13:33 30.28089 36.25113 28574 ft 514 kts 172°
2026-05-08 13:33 30.24558 36.25806 28897 ft 515 kts 172°
2026-05-08 13:34 30.21019 36.26499 29150 ft 517 kts 172°
2026-05-08 13:34 30.17454 36.27206 29345 ft 520 kts 172°
2026-05-08 13:34 30.13880 36.27935 29578 ft 522 kts 171°
2026-05-08 13:34 30.10338 36.28667 29846 ft 524 kts 171°
2026-05-08 13:35 30.06746 36.29412 30090 ft 525 kts 171°
2026-05-08 13:35 30.03150 36.30157 30371 ft 525 kts 171°
2026-05-08 13:35 29.99556 36.30898 30659 ft 524 kts 171°
2026-05-08 13:35 29.95962 36.31636 30928 ft 525 kts 171°
2026-05-08 13:36 29.92366 36.32372 31161 ft 525 kts 172°
2026-05-08 13:36 29.88765 36.33109 31403 ft 526 kts 172°
2026-05-08 13:36 29.85153 36.33847 31636 ft 526 kts 172°
2026-05-08 13:36 29.81545 36.34584 31884 ft 527 kts 172°
2026-05-08 13:37 29.77935 36.35321 32134 ft 527 kts 172°
2026-05-08 13:37 29.74336 36.36056 32399 ft 526 kts 172°
2026-05-08 13:37 29.70719 36.36794 32636 ft 527 kts 172°
2026-05-08 13:37 29.67098 36.37506 32878 ft 527 kts 173°
2026-05-08 13:38 29.63460 36.38173 33103 ft 527 kts 173°
2026-05-08 13:38 29.59844 36.38817 33340 ft 527 kts 173°
2026-05-08 13:38 29.56214 36.39463 33579 ft 527 kts 173°
2026-05-08 13:38 29.52591 36.40115 33821 ft 527 kts 173°
2026-05-08 13:39 29.48973 36.40773 34050 ft 526 kts 173°
2026-05-08 13:39 29.45400 36.41425 34306 ft 525 kts 173°
2026-05-08 13:39 29.41801 36.42083 34583 ft 523 kts 173°
2026-05-08 13:39 29.38216 36.42738 34849 ft 520 kts 174°
2026-05-08 13:40 29.34643 36.43391 34979 ft 521 kts 174°
2026-05-08 13:40 29.31043 36.44047 34957 ft 523 kts 174°
2026-05-08 13:40 29.23871 36.45356 34973 ft 519 kts 174°
2026-05-08 13:41 29.16781 36.46648 34966 ft 517 kts 174°
2026-05-08 13:41 29.09689 36.47938 34961 ft 515 kts 174°
2026-05-08 13:42 29.02609 36.49213 34977 ft 514 kts 174°
2026-05-08 13:42 28.95578 36.50468 34987 ft 515 kts 174°
2026-05-08 13:43 28.88483 36.51733 34965 ft 517 kts 174°
2026-05-08 13:43 28.81359 36.53003 34969 ft 519 kts 174°
2026-05-08 13:44 28.74197 36.54280 34972 ft 521 kts 174°
2026-05-08 13:44 28.67007 36.55560 34977 ft 523 kts 174°
2026-05-08 13:45 28.59798 36.56842 34967 ft 524 kts 174°
2026-05-08 13:45 28.52589 36.58128 34972 ft 525 kts 174°
2026-05-08 13:46 28.45374 36.59418 34964 ft 525 kts 174°
2026-05-08 13:46 28.38196 36.60691 34954 ft 524 kts 175°
2026-05-08 13:47 28.30994 36.60872 34986 ft 515 kts 187°
2026-05-08 13:47 28.23853 36.60375 34963 ft 514 kts 188°
2026-05-08 13:48 28.16702 36.59893 34979 ft 514 kts 187°
2026-05-08 13:48 28.09570 36.59472 34967 ft 513 kts 187°
2026-05-08 13:49 28.02475 36.59077 34973 ft 513 kts 187°
2026-05-08 13:49 27.95334 36.58682 34973 ft 514 kts 187°
2026-05-08 13:50 27.88186 36.58283 34973 ft 514 kts 187°
2026-05-08 13:50 27.81042 36.57883 34978 ft 513 kts 187°
2026-05-08 13:51 27.73911 36.57491 34972 ft 513 kts 187°
2026-05-08 13:51 27.66818 36.57092 34955 ft 513 kts 187°
2026-05-08 13:52 27.59668 36.56688 34960 ft 514 kts 187°
2026-05-08 13:52 27.52514 36.56289 34959 ft 515 kts 187°
2026-05-08 13:53 27.46567 36.55960 34944 ft 514 kts 187°
2026-05-08 13:53 27.38258 36.55499 34953 ft 514 kts 187°
2026-05-08 13:54 27.32270 36.55167 34944 ft 514 kts 187°
2026-05-08 13:54 27.25167 36.54773 34921 ft 514 kts 187°
2026-05-08 13:55 27.18033 36.54378 34912 ft 512 kts 187°
2026-05-08 13:56 27.07363 36.53787 34903 ft 511 kts 187°
2026-05-08 13:56 27.00260 36.53387 34892 ft 511 kts 187°
2026-05-08 13:57 26.93159 36.52988 34890 ft 510 kts 187°
2026-05-08 13:57 26.86129 36.52594 34890 ft 509 kts 187°
2026-05-08 13:58 26.79068 36.52200 34887 ft 508 kts 187°
2026-05-08 13:58 26.71995 36.51805 34861 ft 508 kts 187°
2026-05-08 13:59 26.64942 36.51412 34878 ft 507 kts 187°
2026-05-08 13:59 26.57890 36.51019 34881 ft 507 kts 187°
2026-05-08 14:00 26.50882 36.50629 34869 ft 506 kts 187°
2026-05-08 14:00 26.43853 36.50239 34861 ft 505 kts 187°
2026-05-08 14:01 26.36839 36.49849 34860 ft 504 kts 187°
2026-05-08 14:01 26.29828 36.49460 34860 ft 503 kts 187°
2026-05-08 14:02 26.22816 36.49461 34811 ft 510 kts 169°
2026-05-08 14:02 26.19487 36.50798 34875 ft 512 kts 152°
2026-05-08 14:02 26.16550 36.53052 34864 ft 512 kts 136°
2026-05-08 14:02 26.14208 36.56001 34843 ft 507 kts 119°
2026-05-08 14:03 26.12465 36.59397 34888 ft 504 kts 115°
2026-05-08 14:03 26.09195 36.66289 34866 ft 504 kts 114°
2026-05-08 14:04 26.05910 36.73151 34858 ft 506 kts 115°
2026-05-08 14:04 26.02516 36.80067 34862 ft 507 kts 116°
2026-05-08 14:05 25.99125 36.86911 34862 ft 508 kts 116°
2026-05-08 14:05 25.95712 36.93794 34863 ft 509 kts 116°
2026-05-08 14:06 25.92295 37.00685 34871 ft 509 kts 116°
2026-05-08 14:06 25.88868 37.07588 34846 ft 510 kts 116°
2026-05-08 14:07 25.85437 37.14489 34844 ft 510 kts 116°
2026-05-08 14:07 25.81952 37.21288 34838 ft 511 kts 122°
2026-05-08 14:08 25.77172 37.27131 34844 ft 514 kts 141°
2026-05-08 14:08 25.71309 37.31634 34852 ft 512 kts 147°
2026-05-08 14:09 25.65366 37.35983 34859 ft 511 kts 147°
2026-05-08 14:09 25.59468 37.40375 34859 ft 510 kts 147°
2026-05-08 14:10 25.53600 37.44793 34867 ft 509 kts 147°
2026-05-08 14:10 25.47779 37.49178 34881 ft 508 kts 147°
2026-05-08 14:11 25.41932 37.53571 34860 ft 507 kts 147°
2026-05-08 14:11 25.36097 37.57947 34870 ft 506 kts 147°
2026-05-08 14:12 25.30276 37.62309 34873 ft 505 kts 148°
2026-05-08 14:12 25.24465 37.66659 34874 ft 504 kts 147°
2026-05-08 14:13 25.18658 37.71000 34871 ft 504 kts 147°
2026-05-08 14:13 25.12864 37.75336 34880 ft 503 kts 148°
2026-05-08 14:14 25.07076 37.79666 34871 ft 502 kts 148°
2026-05-08 14:14 25.01294 37.83987 34853 ft 501 kts 148°
2026-05-08 14:15 24.95521 37.88296 34856 ft 500 kts 148°
2026-05-08 14:15 24.89790 37.92569 34837 ft 500 kts 148°
2026-05-08 14:16 24.84028 37.96858 34858 ft 500 kts 149°